This is the latest recevied weather packets stored in our database for station/object KM7BEO. If no packets are shown the sender has not sent any weather packets the latest 10 day(s).
| Time | Temp. | Humidity | Pressure | Rain* | Wind** | Luminosity | Snow |
|---|---|---|---|---|---|---|---|
| 1777771690 | 21.11° C | 46% | 1013.2 hPa | 0 mm | - | 44 W/m² | - |
| 1777771388 | 21.67° C | 46% | 1013.2 hPa | 0 mm | - | 75 W/m² | - |
| 1777771084 | 22.22° C | 46% | 1013.3 hPa | 0 mm | - | 138 W/m² | - |
| 1777770781 | 22.22° C | 47% | 1013.2 hPa | 0 mm | - | 230 W/m² | - |
| 1777770477 | 21.67° C | 46% | 1013.5 hPa | 0 mm | - | 207 W/m² | - |
| 1777770175 | 21.67° C | 51% | 1013.5 hPa | 0 mm | - | 211 W/m² | - |
| 1777769872 | 21.67° C | 46% | 1013.5 hPa | 0 mm | - | 168 W/m² | - |
| 1777769569 | 21.67° C | 49% | 1013.4 hPa | 0 mm | - | 168 W/m² | - |
| 1777769265 | 21.11° C | 53% | 1013.4 hPa | 0 mm | - | 142 W/m² | - |
| 1777768963 | 21.11° C | 53% | 1013.5 hPa | 0 mm | - | 112 W/m² | - |
| 1777768660 | 21.11° C | 53% | 1013.6 hPa | 0 mm | - | 133 W/m² | - |
| 1777768357 | 21.11° C | 54% | 1013.4 hPa | 0 mm | - | 282 W/m² | - |
| 1777768054 | 21.11° C | 55% | 1013.4 hPa | 0 mm | - | 117 W/m² | - |
| 1777767751 | 21.11° C | 54% | 1013.3 hPa | 0 mm | - | 102 W/m² | - |
| 1777767447 | 21.11° C | 56% | 1013.4 hPa | 0 mm | - | 96 W/m² | - |
| 1777767143 | 21.11° C | 54% | 1013.4 hPa | 0 mm | - | 54 W/m² | - |
| 1777766842 | 21.67° C | 52% | 1013.6 hPa | 0 mm | - | 78 W/m² | - |
| 1777766539 | 21.67° C | 52% | 1013.6 hPa | 0 mm | - | 120 W/m² | - |
| 1777766235 | 21.67° C | 52% | 1013.6 hPa | 0 mm | - | 107 W/m² | - |
| 1777765933 | 21.11° C | 55% | 1013.6 hPa | 0 mm | - | 375 W/m² | - |
| 1777765629 | 21.67° C | 54% | 1013.7 hPa | 0 mm | - | 101 W/m² | - |
| 1777765327 | 21.67° C | 53% | 1013.8 hPa | 0 mm | - | 325 W/m² | - |
| 1777765022 | 21.11° C | 54% | 1013.9 hPa | 0 mm | - | 462 W/m² | - |
| 1777764720 | 21.11° C | 53% | 1013.9 hPa | 0 mm | - | 482 W/m² | - |
| 1777764415 | 21.11° C | 55% | 1014 hPa | 0 mm | - | 493 W/m² | - |
* Rain latest hour (hover to see other rain measurements)
** Current wind speed in m/s (hover to see current wind gust speed)